User: anonymous
Location: Columbia
(38.9520°N, 92.3340°W)
Time: 16:45:28
(UTC-05:00)
Language:

CZ-4B R/B - Orbit

View from above orbital plane
View from above orbital plane
View from above satellite
View from above satellite

Ground track
Ground track

The orbit data is extracted from the following two-line orbital elements,

1 29093U 06015B   14261.13054567  .00007834  00000-0  28147-3 0  3924
2 29093 097.5160 340.9885 0087790 294.6628 124.1624 15.25294299463740
Epoch (UTC): 18 September 2014 03:07:59
Eccentricity: 0.0087790
inclination: 97.5160°
perigee height: 429 km
apogee height: 550 km
right ascension of ascending node: 340.9885°
argument of perigee: 294.6628°
revolutions per day: 15.25294299
mean anomaly at epoch: 124.1624°
orbit number at epoch: 46374

The dashed part of the orbit path shows where the satellite is in the earth's shadow,  

DLR